Temperature
22 22 21 22 22 23 23 24 24 24 24 24 24 24 23 22 21 19 18 18 18 17 17 17 17 17 17 17 17 17 17 17 17 17 17 17 17 17 17 17 17 17 17 18 18 18 18 18 18
22 22 22 22 22 23 23 24 23 24 24 24 24 24 23 21 20 18 18 18 18 17 17 17 17 17 17 17 17 17 17 17 17 17 17 17 17 17 17 17 17 17 17 17 17 17 17 17 18
22 22 23 23 23 23 23 23 24 24 24 24 24 23 21 20 19 18 18 18 18 17 17 17 17 17 17 17 17 17 17 17 17 17 17 17 17 17 17 17 17 17 17 17 17 17 17 17 17
22 23 24 24 23 24 24 24 24 25 24 24 24 22 20 19 19 18 18 18 18 17 17 17 17 17 17 17 17 17 17 17 17 17 17 17 17 17 17 17 17 17 17 17 17 17 17 17 17
23 24 24 23 24 24 25 25 25 25 24 24 23 21 19 19 18 18 18 18 18 18 17 17 17 17 17 17 17 17 17 17 17 17 17 17 17 17 17 17 17 17 17 17 17 17 17 17 17
24 25 23 23 24 24 25 25 25 25 24 24 23 21 19 19 18 18 18 18 18 18 18 18 17 17 17 17 17 17 17 17 17 17 17 17 17 17 17 16 17 17 17 17 17 17 17 17 17
24 24 24 24 23 24 25 25 25 24 24 23 23 21 19 19 18 18 18 18 18 18 18 18 17 17 17 17 17 17 17 17 16 16 16 16 16 16 16 16 16 16 16 16 17 17 17 17 17
24 24 24 24 23 23 24 24 24 24 23 23 22 21 20 19 18 18 18 18 18 18 18 18 17 17 17 17 17 17 17 16 16 16 16 16 16 16 16 16 16 16 16 16 16 16 16 16 16
25 24 23 24 24 23 24 24 24 23 23 22 22 21 20 19 19 18 18 18 18 18 18 18 17 17 17 17 16 16 16 16 16 16 16 16 16 16 16 16 16 16 16 16 16 16 16 16 16
25 23 24 25 25 24 24 24 24 23 23 22 21 20 20 19 19 19 19 19 18 18 18 18 18 17 17 17 16 16 16 16 16 16 16 16 16 16 16 16 16 16 16 16 16 16 16 16 16
25 24 24 25 25 25 24 24 23 23 22 22 21 20 20 19 19 19 19 19 19 18 18 18 18 17 17 17 16 16 16 16 16 16 16 16 16 16 16 16 16 16 16 16 16 16 16 16 16
25 25 25 25 25 24 24 24 23 22 22 22 21 20 20 20 20 19 19 19 19 18 18 18 18 17 17 17 16 16 16 16 16 16 16 16 16 16 16 16 16 16 16 16 16 16 16 16 16
25 25 25 24 24 24 24 23 23 22 22 22 21 21 20 20 20 20 19 19 19 18 18 18 18 17 17 17 17 16 16 16 16 16 16 16 16 16 16 16 15 15 15 16 16 16 16 16 16
25 25 24 24 24 24 24 23 23 22 22 22 21 21 20 20 20 20 19 19 19 18 18 18 18 17 17 17 17 16 16 16 16 16 16 16 16 16 15 15 15 15 16 16 16 15 15 15 15
25 25 24 24 24 24 24 23 23 23 22 22 21 21 20 20 20 20 19 19 19 19 18 18 18 17 17 17 17 16 16 16 16 16 16 16 16 16 15 15 15 15 15 15 15 15 15 15 15
25 24 23 24 25 24 23 22 23 23 22 22 21 21 21 20 20 20 19 19 19 19 18 18 18 17 17 17 16 16 16 16 16 16 16 16 16 15 15 15 15 15 15 15 15 15 15 15 15
24 23 24 24 25 25 24 22 23 23 23 22 22 21 21 20 20 20 19 19 19 19 18 18 17 17 17 17 16 16 16 16 16 15 15 15 15 15 15 15 15 15 15 15 15 15 15 15 15
24 25 25 25 25 25 24 23 23 23 23 23 22 21 21 21 20 20 19 19 19 18 18 18 17 17 17 16 16 16 16 16 15 15 15 15 15 15 15 15 15 15 15 15 15 15 15 15 15
26 25 25 25 25 24 24 23 24 23 23 23 22 22 21 21 20 20 19 19 19 18 18 18 17 17 17 16 16 16 16 16 15 15 15 15 15 15 15 15 15 15 15 15 15 15 15 15 15
26 25 25 25 26 25 24 24 24 24 23 23 22 22 22 21 20 20 19 19 19 18 18 18 17 17 17 16 16 16 16 16 15 15 15 15 15 15 15 15 15 15 15 15 15 15 14 14 15
26 25 25 25 25 25 24 23 24 24 23 23 22 22 22 21 20 20 19 19 18 18 18 18 18 17 17 16 16 16 16 16 15 15 15 15 15 15 15 15 15 15 15 14 14 14 14 14 14
25 26 26 25 24 24 24 22 23 24 23 23 23 22 22 21 21 20 19 19 18 18 18 18 18 17 17 16 16 16 16 16 16 15 15 15 15 15 15 15 15 15 15 15 14 14 14 14 14
25 26 26 25 24 24 25 24 23 24 23 23 23 22 22 21 21 20 19 19 18 18 18 18 17 17 17 16 16 16 16 16 16 16 15 15 15 15 15 15 15 15 15 15 15 14 14 14 14
26 25 25 25 24 23 24 24 22 23 23 23 23 22 22 21 21 20 19 19 18 18 18 18 17 17 17 17 16 16 16 16 16 16 15 15 15 15 15 15 15 15 15 15 15 15 15 15 15
25 24 22 22 22 23 25 24 23 24 24 24 23 23 22 21 20 20 19 19 18 18 18 17 17 17 17 16 16 16 16 16 16 16 15 15 15 15 15 15 15 15 15 15 15 15 15 15 15
25 24 22 22 22 24 25 24 23 24 24 24 23 22 22 21 20 20 19 18 18 18 17 17 17 17 17 16 16 16 16 16 16 16 15 15 15 15 15 15 15 15 15 15 15 15 15 15 15
24 24 24 24 24 24 24 23 23 24 23 23 23 22 21 21 20 19 19 18 18 17 17 17 17 17 17 16 16 16 16 16 16 16 15 15 15 15 15 15 15 15 15 15 15 14 15 14 14
25 25 24 23 22 22 23 23 22 23 23 23 22 22 21 20 20 19 19 18 18 17 17 17 17 17 16 16 16 16 16 16 16 15 15 15 15 15 15 15 15 15 15 15 15 15 15 14 14
24 24 24 24 24 23 22 22 24 23 23 23 22 22 21 21 20 19 19 18 18 17 17 17 17 17 16 16 16 16 16 16 16 15 15 15 15 15 15 15 15 15 15 15 15 14 14 14 14
24 24 24 23 23 23 22 22 24 24 24 23 22 22 21 20 20 19 19 18 18 17 17 17 17 16 16 16 16 16 16 16 16 15 15 15 15 15 15 15 15 15 15 15 15 14 14 14 14
Wind_Speed
12 12 7 3 2 1 5 6 8 7 7 8 9 9 12 12 8 7 3 5 7 9 11 12 12 12 11 11 11 10 10 11 11 11 11 11 11 11 11 11 12 12 13 13 12 12 12 12 11
11 6 4 3 2 2 5 7 10 9 6 5 8 11 12 11 10 8 4 4 7 10 11 11 11 12 12 11 11 11 11 11 11 11 11 11 12 12 12 11 12 12 13 13 14 13 12 12 11
11 7 3 2 3 5 6 8 8 8 7 6 7 9 8 6 8 5 4 5 8 10 12 11 11 11 11 10 10 10 10 11 11 10 10 11 11 12 12 12 12 12 12 13 13 12 12 11 11
6 3 2 1 6 9 9 7 5 7 7 7 7 8 8 8 6 6 5 6 9 9 12 11 10 9 10 10 10 10 10 10 10 10 10 10 11 11 12 12 12 12 12 12 12 12 11 11 10
4 2 1 3 7 9 8 7 6 7 7 9 10 9 8 8 9 8 6 6 7 8 10 10 10 9 9 9 9 9 9 9 9 10 10 10 10 11 12 12 12 12 11 11 11 11 11 10 10
3 2 1 4 7 8 7 6 6 8 8 8 8 9 7 7 7 6 5 5 6 7 9 10 10 10 9 9 9 8 8 8 8 8 8 9 10 11 11 11 11 11 11 11 11 11 11 10 9
2 1 2 4 6 6 6 6 6 7 8 7 6 8 7 7 5 4 5 5 5 5 6 8 10 10 10 10 9 8 8 7 7 6 7 8 9 10 11 11 11 12 11 11 10 10 10 10 9
3 1 2 4 5 6 6 7 7 7 7 7 5 6 7 8 6 5 5 5 4 4 5 6 7 9 9 9 8 7 7 6 5 5 5 7 8 9 11 11 11 10 10 10 10 10 9 8 7
2 0 2 4 4 6 6 6 7 6 8 8 9 10 10 10 8 6 4 4 4 5 4 5 5 6 7 8 8 7 6 5 4 4 4 4 7 9 10 11 10 9 8 8 8 7 6 6 6
0 2 4 5 5 6 6 5 5 5 7 8 10 11 10 9 7 6 4 4 5 4 4 4 5 5 6 6 6 5 5 4 3 3 3 4 7 8 9 9 8 7 7 6 5 4 4 3 3
3 3 4 5 6 6 5 5 5 5 5 6 8 10 8 8 6 5 4 5 5 5 4 5 5 5 5 4 4 4 4 3 4 4 5 6 7 6 7 5 5 5 4 2 3 3 2 3 4
4 5 4 5 5 5 4 5 6 6 5 7 9 8 7 6 5 4 4 5 5 5 5 5 5 5 5 5 3 3 3 3 3 4 5 5 3 3 4 3 4 3 3 2 3 3 5 6 6
4 4 4 4 4 5 5 5 5 5 6 7 8 7 6 5 5 5 4 5 6 5 5 5 5 5 5 4 2 4 4 3 4 4 4 5 3 3 3 3 3 3 4 3 3 5 6 6 7
4 5 4 4 4 4 4 3 4 4 6 7 7 6 5 5 5 5 4 5 5 5 5 4 5 5 5 4 3 4 3 4 4 3 4 6 5 4 3 3 3 4 4 5 5 5 5 5 5
4 4 3 4 4 4 2 2 3 6 7 6 6 6 5 5 4 4 4 4 4 6 6 5 5 6 6 5 5 4 4 5 4 4 5 6 6 5 4 3 3 3 5 6 6 6 5 5 5
5 4 3 4 5 5 3 1 5 7 7 6 5 5 5 5 4 4 4 4 5 6 6 6 5 7 6 5 4 4 5 4 4 5 6 6 7 8 5 3 3 4 5 5 4 4 4 5 4
6 5 4 5 6 4 4 2 5 7 7 6 5 6 5 6 5 4 5 4 5 5 6 6 5 6 6 4 4 4 4 4 4 5 5 6 6 7 5 3 3 6 5 4 4 5 4 4 4
4 5 3 4 6 5 4 4 5 7 6 5 5 5 6 6 6 5 5 5 4 4 5 6 5 4 5 3 3 3 4 3 4 4 4 5 5 7 5 4 6 6 4 4 4 4 4 3 3
4 3 1 2 6 4 3 4 4 7 6 5 5 5 6 6 7 6 5 5 5 4 4 5 5 4 3 2 2 2 2 2 2 2 4 4 5 6 6 5 5 4 4 3 4 4 4 2 2
5 4 2 3 5 3 3 4 5 7 6 5 4 5 6 7 8 7 6 6 4 5 4 5 4 4 4 3 2 2 3 2 3 2 2 3 4 5 5 4 4 4 3 4 4 4 2 1 2
6 5 3 2 2 5 5 4 5 7 6 6 5 4 5 6 8 8 7 6 5 5 4 4 4 4 5 4 2 2 2 2 2 2 2 3 5 5 4 4 4 4 3 3 3 2 2 1 1
5 3 4 5 5 4 5 2 5 7 7 7 6 4 5 5 7 7 7 7 6 5 4 4 4 4 4 4 3 2 2 2 2 2 2 2 4 4 4 3 3 4 3 3 2 2 1 1 1
5 4 6 8 7 7 6 4 3 7 6 7 7 6 6 5 6 7 7 7 6 6 5 3 4 4 4 4 4 2 2 1 2 3 3 2 3 3 3 3 3 3 3 3 3 2 2 1 1
4 7 9 9 6 7 7 4 2 3 4 6 6 7 7 6 7 7 7 6 6 6 5 4 5 4 4 3 4 3 3 2 3 3 2 2 2 2 2 3 2 2 3 3 3 3 2 2 2
7 5 4 5 5 5 4 3 3 4 5 5 6 7 6 7 7 7 8 7 6 6 6 5 5 4 3 3 3 4 3 3 3 3 2 2 2 2 2 2 2 2 3 3 3 2 2 2 2
7 7 5 4 3 2 4 3 5 6 6 6 7 7 6 7 7 7 7 7 6 6 5 5 5 5 3 3 3 3 3 2 2 2 2 2 2 3 3 2 2 3 3 3 2 1 2 1 2
6 7 8 7 8 5 2 4 6 7 7 6 7 7 6 6 7 7 7 7 7 6 5 5 5 5 4 3 3 3 3 3 2 2 3 2 2 2 3 3 2 3 3 2 2 1 2 2 2
9 7 5 5 4 4 2 3 4 8 7 7 7 7 6 6 6 7 7 7 7 6 6 5 5 5 4 3 3 3 3 3 2 2 3 3 3 3 2 2 2 3 3 2 2 1 2 3 2
8 8 6 5 5 4 3 0 3 7 7 7 6 6 6 6 6 7 7 6 6 6 5 5 4 4 3 3 3 4 4 3 3 2 2 3 3 3 3 3 2 3 3 3 3 1 1 1 2
7 7 7 5 5 5 3 1 4 6 6 6 6 6 6 6 5 6 7 6 6 6 5 5 5 5 4 3 3 4 4 4 4 4 3 3 3 2 2 3 3 3 3 2 4 2 1 1 2
Wind_Direction
278 259 249 261 261 135 62 63 65 56 57 49 49 63 66 51 52 86 98 59 78 85 83 72 61 59 59 59 62 67 66 66 67 68 68 69 68 69 69 69 70 69 69 69 70 78 77 76 73
283 276 267 240 262 85 71 66 67 64 69 70 60 63 70 65 72 95 96 73 82 85 80 74 68 65 64 62 61 64 65 66 67 69 68 70 70 69 68 70 72 70 70 72 73 77 75 75 75
271 270 268 278 32 58 79 71 76 75 65 71 77 58 52 62 71 91 106 103 84 86 86 82 75 70 68 67 68 67 66 66 66 69 71 74 74 72 71 73 74 73 72 74 75 74 73 73 71
267 261 249 59 60 62 75 86 94 93 78 67 81 75 68 53 76 99 106 100 97 98 97 94 87 79 73 69 70 70 69 68 69 71 74 75 75 75 76 76 76 75 74 75 77 75 71 70 67
249 250 146 88 78 74 70 74 75 75 76 70 76 89 86 71 86 97 90 89 95 102 108 105 101 94 86 77 71 70 68 67 68 71 76 79 81 80 79 77 76 76 77 76 75 77 76 73 65
273 249 138 96 92 83 78 75 77 78 81 86 94 98 95 101 92 94 93 86 89 101 114 119 114 105 99 90 82 77 75 76 74 75 79 86 89 89 84 82 77 77 79 78 77 78 76 73 68
300 336 95 104 101 89 78 71 66 75 70 59 73 96 113 113 107 112 100 91 88 98 113 125 133 120 111 101 94 89 86 86 88 88 90 99 101 98 93 86 82 81 80 81 80 79 76 73 67
304 314 102 96 97 89 79 77 72 71 70 61 52 94 120 127 133 119 103 102 98 91 95 113 120 126 126 118 106 109 108 102 103 107 106 115 117 110 102 93 87 84 87 87 85 83 81 74 69
303 343 66 76 92 102 102 95 86 90 89 79 70 80 113 128 130 121 118 111 102 91 91 95 99 109 113 115 117 130 128 120 124 130 135 136 129 116 105 99 101 97 97 97 96 97 94 86 75
80 58 64 69 87 108 110 100 101 96 95 95 95 98 117 131 135 137 137 123 113 102 101 103 99 93 92 89 110 119 111 116 119 111 117 114 102 99 106 114 117 115 115 118 123 123 122 110 98
85 81 78 78 82 93 98 93 84 84 82 95 115 123 130 135 134 137 126 106 103 101 92 94 100 94 96 91 94 82 88 95 73 65 79 85 92 102 112 127 131 131 131 135 149 165 118 95 79
95 79 79 83 89 104 95 89 83 69 73 97 112 124 135 139 139 134 118 106 98 89 85 80 85 93 94 92 96 98 90 78 72 51 73 76 83 93 99 103 102 107 95 63 62 70 73 71 70
111 100 92 92 90 94 96 94 100 99 97 106 122 133 139 136 131 123 114 111 105 103 94 81 80 83 91 86 74 80 74 72 70 43 63 75 72 73 75 85 85 85 80 65 57 64 57 56 53
114 122 129 131 133 130 125 128 131 128 121 121 132 136 129 127 126 122 119 111 110 106 99 89 90 91 89 89 79 78 74 74 66 42 56 75 75 78 75 77 73 68 62 62 68 72 70 65 60
145 154 164 179 172 158 139 125 153 144 141 140 144 139 132 134 138 137 125 116 113 106 101 89 88 85 76 69 62 76 73 67 61 40 41 66 74 81 74 66 73 71 64 64 65 67 72 75 71
205 204 208 185 176 170 178 169 147 151 152 148 151 142 140 144 144 134 123 121 112 113 110 99 91 92 84 76 70 65 69 63 56 45 35 54 70 78 72 59 73 80 72 69 71 63 63 69 67
214 217 207 164 166 177 180 155 145 151 155 157 159 148 154 151 147 137 135 126 112 114 114 113 100 99 97 91 87 72 72 62 55 47 34 44 64 80 82 67 69 75 67 59 71 68 62 72 67
222 210 195 157 158 169 175 176 167 163 169 170 167 160 160 155 152 141 132 119 107 105 108 108 103 102 103 96 88 77 67 54 54 44 40 44 57 75 78 81 72 74 67 60 70 81 70 72 65
270 274 266 134 143 166 191 193 188 167 172 181 173 169 162 152 143 133 134 127 124 115 111 116 119 114 102 94 92 94 87 74 66 45 39 48 69 82 80 74 72 75 75 70 69 74 75 64 67
252 251 223 163 157 185 210 215 190 171 171 172 177 167 156 150 143 138 142 139 141 133 134 132 122 111 99 82 83 108 103 99 94 65 45 59 74 83 99 105 100 94 86 73 67 70 67 47 50
245 246 246 220 197 222 228 219 184 167 163 160 167 160 157 155 149 150 150 143 144 140 139 132 126 118 111 111 90 81 88 78 92 83 53 55 74 81 92 106 112 116 112 107 99 82 81 55 13
256 253 249 249 247 239 223 228 177 168 164 163 165 162 157 152 149 150 148 146 147 141 136 135 130 125 124 127 113 112 120 111 120 120 119 95 92 92 88 103 117 116 112 107 107 95 75 69 15
273 274 255 248 258 266 239 241 175 165 163 164 165 166 157 154 152 151 149 144 144 137 133 134 127 118 116 111 112 111 105 117 113 107 107 101 95 104 109 95 92 105 117 113 107 99 77 62 53
261 265 259 245 250 255 234 228 171 166 156 152 155 157 156 157 149 146 138 130 128 126 130 130 119 117 115 125 145 156 139 134 119 115 117 117 110 98 98 96 94 102 109 114 124 132 120 88 68
235 254 259 227 219 233 207 198 131 121 127 134 144 143 146 145 143 143 138 138 136 134 138 138 130 129 140 160 168 158 151 148 141 144 154 146 131 131 130 107 103 93 96 99 100 125 127 126 120
239 240 250 261 250 236 200 169 127 118 112 115 120 129 137 141 145 145 146 144 138 138 145 150 148 150 159 171 168 151 142 140 144 149 143 130 125 132 128 118 116 108 97 97 100 94 110 105 108
245 244 260 278 280 267 193 132 143 136 131 128 129 130 130 136 143 145 147 148 147 153 159 161 158 160 166 176 162 148 146 144 149 144 131 127 124 117 124 140 138 124 110 97 94 83 105 82 79
244 251 260 259 274 271 229 201 170 154 150 141 137 140 141 142 144 148 150 152 155 160 162 162 161 162 165 182 178 160 152 147 145 133 136 145 138 123 134 137 136 129 127 123 105 86 101 113 110
227 231 242 261 266 263 255 224 118 145 143 143 142 140 144 146 150 153 156 160 158 154 156 160 161 159 167 184 176 158 150 149 147 144 143 134 133 144 161 147 128 123 125 130 120 120 119 123 135
248 248 246 254 269 277 273 140 107 123 124 129 131 132 135 134 136 144 152 153 152 154 163 166 167 165 172 184 169 157 157 160 161 154 154 155 160 158 156 146 139 129 122 131 136 143 131 121 105
Height
1494 1494 1495 1496 1497 1499 1502 1498 1495 1496 1498 1500 1500 1500 1505 1509 1513 1524 1524 1521 1521 1520 1518 1517 1517 1516 1516 1515 1515 1515 1515 1515 1515 1515 1516 1516 1516 1517 1517 1517 1517 1517 1517 1516 1515 1516 1518 1519 1520
1494 1496 1497 1496 1498 1506 1507 1499 1500 1500 1501 1501 1502 1504 1507 1512 1517 1520 1522 1522 1522 1521 1519 1519 1518 1517 1517 1517 1516 1516 1516 1516 1517 1517 1517 1517 1518 1518 1518 1518 1518 1518 1518 1518 1517 1518 1520 1521 1522
1495 1496 1497 1495 1499 1505 1507 1500 1500 1501 1502 1502 1505 1507 1511 1517 1519 1521 1522 1523 1522 1522 1521 1520 1519 1519 1518 1518 1518 1518 1517 1518 1518 1518 1518 1519 1519 1519 1519 1519 1519 1519 1519 1520 1520 1521 1522 1523 1524
1497 1497 1496 1498 1503 1500 1500 1500 1500 1501 1503 1504 1505 1511 1517 1520 1521 1522 1523 1523 1523 1522 1522 1521 1521 1520 1520 1519 1519 1519 1519 1519 1519 1519 1520 1520 1520 1520 1521 1521 1521 1521 1521 1521 1522 1523 1523 1524 1525
1498 1497 1498 1502 1503 1500 1499 1501 1502 1503 1504 1506 1508 1514 1520 1522 1522 1523 1524 1524 1524 1524 1523 1523 1522 1521 1521 1521 1520 1520 1520 1520 1521 1521 1521 1521 1522 1522 1522 1522 1522 1522 1523 1523 1524 1524 1525 1526 1527
1498 1495 1503 1508 1505 1501 1501 1503 1503 1504 1506 1508 1511 1515 1521 1523 1524 1524 1525 1525 1525 1525 1524 1524 1524 1523 1523 1522 1522 1522 1522 1522 1522 1522 1523 1523 1523 1523 1524 1524 1524 1524 1524 1525 1525 1526 1526 1527 1528
1498 1497 1502 1504 1506 1505 1503 1504 1505 1506 1508 1510 1512 1516 1521 1524 1524 1525 1526 1526 1526 1526 1526 1525 1525 1524 1524 1524 1523 1523 1523 1524 1524 1524 1524 1525 1525 1525 1525 1525 1526 1526 1526 1527 1527 1528 1528 1529 1530
1498 1498 1501 1503 1506 1507 1505 1506 1508 1509 1511 1513 1513 1516 1521 1524 1525 1526 1526 1527 1527 1527 1527 1527 1526 1526 1526 1525 1525 1525 1525 1525 1526 1526 1526 1526 1527 1527 1527 1527 1527 1527 1528 1528 1529 1529 1530 1531 1531
1499 1502 1506 1505 1506 1507 1506 1508 1510 1511 1513 1515 1516 1518 1521 1524 1525 1526 1527 1528 1528 1528 1528 1528 1528 1528 1528 1527 1527 1527 1527 1527 1527 1528 1528 1528 1528 1529 1529 1529 1529 1529 1529 1530 1530 1531 1531 1532 1533
1500 1505 1505 1502 1502 1505 1507 1508 1510 1512 1514 1516 1519 1521 1522 1524 1526 1527 1527 1528 1528 1529 1529 1529 1529 1529 1529 1529 1529 1529 1529 1529 1529 1530 1530 1530 1531 1531 1531 1531 1531 1531 1531 1532 1532 1533 1533 1533 1534
1500 1504 1503 1503 1504 1506 1508 1510 1512 1513 1515 1517 1519 1521 1523 1525 1526 1527 1528 1528 1529 1530 1530 1530 1530 1530 1530 1530 1530 1530 1530 1531 1531 1531 1532 1532 1532 1532 1532 1532 1532 1532 1533 1533 1534 1535 1535 1535 1536
1502 1503 1504 1505 1507 1508 1509 1511 1513 1515 1518 1518 1520 1521 1523 1525 1526 1527 1528 1529 1530 1530 1531 1531 1531 1531 1531 1531 1531 1532 1532 1532 1532 1533 1533 1533 1533 1534 1534 1534 1534 1534 1535 1535 1536 1536 1536 1537 1537
1503 1505 1506 1508 1509 1510 1511 1512 1514 1517 1518 1519 1520 1522 1523 1525 1526 1527 1528 1529 1530 1531 1531 1531 1532 1532 1532 1532 1533 1533 1533 1533 1534 1534 1534 1534 1535 1535 1535 1535 1535 1536 1536 1537 1537 1537 1537 1538 1538
1504 1505 1507 1508 1509 1510 1511 1513 1515 1517 1518 1520 1521 1522 1524 1525 1526 1528 1529 1529 1530 1531 1532 1532 1532 1533 1533 1533 1534 1534 1534 1535 1535 1535 1535 1536 1536 1536 1536 1536 1537 1537 1537 1538 1538 1538 1539 1539 1539
1505 1506 1507 1507 1508 1509 1511 1514 1514 1516 1518 1519 1521 1522 1524 1525 1526 1528 1529 1530 1530 1531 1532 1533 1533 1534 1534 1534 1535 1535 1536 1536 1536 1536 1537 1537 1537 1537 1537 1537 1538 1538 1539 1539 1539 1540 1540 1540 1541
1504 1507 1512 1506 1506 1508 1513 1519 1513 1515 1517 1519 1520 1521 1523 1525 1526 1527 1528 1530 1530 1531 1532 1533 1534 1534 1535 1535 1536 1536 1536 1537 1537 1537 1538 1538 1538 1538 1538 1539 1539 1539 1540 1540 1540 1541 1541 1542 1542
1506 1511 1510 1506 1504 1505 1510 1515 1512 1514 1515 1517 1519 1520 1522 1524 1525 1527 1528 1530 1531 1531 1532 1533 1534 1535 1535 1536 1537 1537 1537 1538 1538 1538 1538 1539 1539 1539 1539 1540 1540 1540 1541 1541 1541 1542 1542 1543 1543
1507 1505 1504 1505 1503 1505 1509 1511 1510 1512 1513 1515 1517 1519 1520 1522 1524 1526 1528 1529 1530 1532 1532 1533 1535 1535 1536 1537 1537 1538 1538 1539 1539 1539 1539 1540 1540 1540 1541 1541 1541 1541 1542 1542 1543 1543 1544 1544 1545
1497 1500 1503 1502 1500 1504 1507 1508 1508 1509 1512 1513 1515 1517 1519 1521 1523 1525 1527 1529 1530 1531 1532 1533 1534 1535 1536 1537 1538 1538 1538 1539 1539 1540 1540 1540 1541 1541 1541 1542 1542 1542 1543 1543 1544 1544 1545 1546 1546
1496 1502 1503 1501 1499 1502 1506 1506 1504 1506 1509 1511 1513 1515 1517 1520 1522 1524 1526 1528 1530 1531 1532 1533 1534 1535 1536 1537 1538 1538 1539 1540 1540 1540 1541 1541 1542 1542 1542 1543 1543 1543 1544 1544 1545 1545 1546 1547 1547
1497 1501 1501 1502 1500 1500 1505 1509 1505 1504 1506 1509 1511 1513 1515 1518 1520 1523 1525 1527 1529 1530 1532 1533 1534 1535 1536 1537 1538 1539 1539 1540 1541 1541 1542 1542 1542 1543 1543 1544 1544 1545 1545 1545 1546 1546 1547 1548 1549
1500 1494 1496 1500 1505 1507 1504 1518 1506 1502 1504 1507 1510 1512 1514 1516 1519 1521 1524 1526 1528 1530 1531 1533 1534 1535 1536 1537 1538 1538 1539 1540 1541 1542 1542 1543 1543 1544 1544 1545 1545 1546 1546 1546 1547 1547 1548 1548 1549
1495 1493 1495 1498 1501 1505 1501 1509 1508 1499 1504 1505 1507 1510 1513 1515 1517 1520 1522 1525 1527 1529 1531 1532 1533 1535 1536 1537 1538 1539 1540 1541 1541 1542 1543 1544 1544 1544 1545 1546 1546 1547 1547 1547 1547 1548 1548 1549 1549
1493 1495 1495 1495 1501 1514 1501 1506 1512 1502 1501 1502 1504 1508 1511 1514 1516 1518 1521 1524 1526 1528 1530 1531 1533 1534 1535 1536 1537 1538 1539 1540 1541 1542 1543 1544 1544 1545 1546 1546 1547 1547 1547 1548 1548 1548 1548 1549 1549
1494 1504 1515 1516 1518 1512 1492 1500 1507 1496 1496 1499 1502 1506 1509 1511 1514 1517 1520 1522 1525 1527 1529 1531 1532 1533 1535 1536 1537 1538 1539 1540 1541 1542 1543 1544 1544 1545 1546 1546 1547 1547 1548 1548 1548 1548 1549 1549 1549
1493 1499 1516 1522 1518 1506 1494 1502 1501 1493 1496 1499 1501 1505 1508 1510 1513 1516 1519 1521 1524 1526 1528 1530 1531 1533 1534 1535 1536 1538 1539 1540 1540 1541 1542 1543 1544 1545 1546 1546 1547 1547 1547 1548 1548 1548 1549 1549 1549
1495 1496 1494 1502 1501 1506 1500 1499 1497 1493 1496 1498 1501 1505 1508 1510 1513 1515 1518 1520 1523 1525 1527 1528 1530 1532 1533 1534 1536 1537 1538 1539 1540 1541 1542 1543 1544 1545 1545 1546 1546 1547 1547 1547 1548 1548 1548 1549 1549
1489 1491 1496 1503 1512 1516 1506 1502 1502 1497 1497 1498 1501 1504 1507 1510 1512 1515 1517 1519 1521 1523 1525 1527 1529 1530 1532 1533 1534 1535 1536 1538 1539 1540 1541 1542 1543 1544 1545 1545 1546 1546 1547 1547 1547 1547 1548 1548 1548
1489 1490 1492 1496 1497 1510 1517 1511 1488 1492 1493 1497 1500 1503 1506 1508 1511 1513 1516 1518 1520 1522 1524 1526 1527 1529 1530 1531 1532 1534 1535 1536 1538 1539 1540 1541 1542 1543 1544 1545 1545 1546 1546 1546 1547 1547 1547 1547 1548
1484 1486 1490 1502 1502 1497 1505 1509 1487 1489 1492 1495 1499 1502 1505 1507 1510 1512 1514 1516 1519 1521 1522 1524 1526 1527 1528 1529 1531 1532 1533 1535 1536 1538 1539 1540 1541 1542 1543 1544 1544 1545 1545 1546 1546 1546 1546 1547 1547